Hourly Data Report for April 29, 2017

All times are specified in Local Standard Time (LST). Add 1 hour to adjust for Daylight Saving Time where and when it is observed.

TORONTO CITY
ONTARIO

43°40'00.000" N
79°24'00.000" W
112.50 m
6158355
71508
XTO

Download Data

Hourly Data (April 2017)
Hourly Data Report for April 29, 2017
TIME Temp Definition
°C
Dew Point Definition
°C
Rel Hum Definition
%
Wind Dir Definition
10's deg

Wind Spd Definition
km/h
Visibility Definition
km
Stn Press Definition
kPa
Hmdx Definition


Wind Chill Definition


Weather Definition


00:00 12.8 6.5 65 LegendMM LegendMM   100.04     LegendNANA
01:00 13.9 6.7 62 LegendMM LegendMM   100.12     LegendNANA
02:00 13.5 6.8 64 LegendMM LegendMM   100.06     LegendNANA
03:00 14.0 7.2 63 LegendMM LegendMM   100.11     LegendNANA
04:00 10.3 3.7 64 LegendMM LegendMM   100.15     LegendNANA
05:00 8.4 2.1 64 LegendMM LegendMM   100.25     LegendNANA
06:00 7.9 0.2 58 LegendMM LegendMM   100.36     LegendNANA
07:00 7.3 -0.8 56 LegendMM LegendMM   100.42     LegendNANA
08:00 8.1 -0.2 56 LegendMM LegendMM   100.54     LegendNANA
09:00 8.5 0.1 55 LegendMM LegendMM   100.62     LegendNANA
10:00 9.5 -0.3 51 LegendMM LegendMM   100.61     LegendNANA
11:00 10.3 0.9 52 LegendMM LegendMM   100.63     LegendNANA
12:00 12.5 2.2 49 LegendMM LegendMM   100.61     LegendNANA
13:00 14.7 2.9 45 LegendMM LegendMM   100.68     LegendNANA
14:00 12.3 1.8 49 LegendMM LegendMM   100.81     LegendNANA
15:00 13.8 4.2 52 LegendMM LegendMM   100.78     LegendNANA
16:00 13.0 -0.2 40 LegendMM LegendMM   100.76     LegendNANA
17:00 12.1 -2.2 37 LegendMM LegendMM   100.83     LegendNANA
18:00 10.6 -2.7 39 LegendMM LegendMM   100.83     LegendNANA
19:00 9.6 -2.6 42 LegendMM LegendMM   100.94     LegendNANA
20:00 8.8 -2.7 44 LegendMM LegendMM   101.06     LegendNANA
21:00 8.3 -2.7 46 LegendMM LegendMM   101.12     LegendNANA
22:00 8.2 -2.6 47 LegendMM LegendMM   101.06     LegendNANA
23:00 8.9 -2.2 46 LegendMM LegendMM   101.12     LegendNANA

Notes on Data Quality.

Legend

  • E = Estimated
  • M = Missing
  • NA = Not Available
Date modified: